DW2147 Weather Reports


Display with metric or nautical units.
time (UTC)temp
F
wind
direction
speed
MPH
gust
MPH
rain 1hr
in
rain 24hr
in
rain mn
in
humidity
%
barometer
mb
20260904223419 78 0 2.0 6.0 0.01 1.21 0.52 74 1015.0
20260904222918 78 0 2.0 6.0 0.01 1.21 0.52 74 1015.0
20260904222420 78 0 3.0 11.0 0.01 1.21 0.52 74 1015.0
20260904221914 78 0 5.0 11.0 0.01 1.21 0.52 74 1015.0
20260904221413 78 0 5.0 10.0 0.01 1.21 0.52 73 1015.0
20260904221144 78 0 4.0 9.0 0.01 1.21 0.52 73 1015.0
20260904220411 78 0 3.0 8.0 0.01 1.21 0.52 73 1015.3
20260904215911 78 0 3.0 5.0 0.00 1.20 0.51 72 1015.4
20260904215411 79 0 3.0 6.0 0.00 1.20 0.51 72 1015.5
20260904214904 79 0 3.0 6.0 0.00 1.20 0.51 73 1015.6
20260904214405 79 0 2.0 5.0 0.00 1.20 0.51 73 1015.5
20260904213906 78 0 2.0 5.0 0.00 1.20 0.51 73 1015.8
20260904213636 78 0 2.0 6.0 0.00 1.20 0.51 73 1015.8
20260904213135 79 0 3.0 6.0 0.00 1.20 0.51 73 1015.7
20260904212405 79 0 2.0 4.0 0.00 1.20 0.51 74 1015.5
20260904211859 79 0 2.0 4.0 0.00 1.20 0.51 74 1015.6
20260904211357 78 181 1.0 4.0 0.00 1.20 0.51 74 1015.4
20260904210855 78 0 3.0 6.0 0.00 1.20 0.51 74 1015.5
20260904210352 78 0 4.0 9.0 0.00 1.20 0.51 74 1015.8
20260904205853 78 0 3.0 9.0 0.00 1.20 0.51 74 1015.8
20260904205347 78 0 4.0 8.0 0.00 1.20 0.51 74 1015.6
20260904204848 78 0 4.0 8.0 0.00 1.20 0.51 74 1015.4
20260904204349 78 0 4.0 8.0 0.00 1.20 0.51 74 1015.3
20260904203848 78 0 4.0 8.0 0.00 1.20 0.51 74 1015.4
20260904203347 78 0 5.0 8.0 0.00 1.20 0.51 74 1015.3
20260904202850 78 0 4.0 8.0 0.00 1.20 0.51 75 1015.4
20260904202611 78 0 3.0 8.0 0.00 1.20 0.51 74 1015.6
20260904201837 78 0 3.0 6.0 0.00 1.20 0.51 75 1015.7
20260904201337 78 0 3.0 8.0 0.00 1.20 0.51 74 1016.0
20260904200835 78 0 2.0 8.0 0.00 1.20 0.51 74 1016.0
20260904200337 78 0 0.0 3.0 0.00 1.20 0.51 73 1016.0
20260904195833 78 0 0.0 0.0 0.00 1.20 0.51 73 1016.1
20260904195330 78 288 0.0 2.0 0.00 1.20 0.51 72 1016.1
20260904194829 79 290 0.0 2.0 0.00 1.20 0.51 73 1016.1
20260904194328 79 0 0.0 2.0 0.00 1.20 0.51 72 1016.3
20260904193828 79 0 0.0 2.0 0.00 1.20 0.51 71 1016.4
20260904193600 79 0 0.0 3.0 0.00 1.20 0.51 70 1016.3
20260904192822 80 0 1.0 3.0 0.00 1.20 0.51 70 1016.3
20260904192320 80 0 1.0 3.0 0.00 1.20 0.51 70 1016.4
20260904191827 80 0 1.0 3.0 0.00 1.20 0.51 68 1016.7
20260904191819 80 0 1.0 3.0 0.00 1.20 0.51 69 1016.7
20260904190817 80 0 1.0 3.0 0.00 1.20 0.51 68 1016.9
20260904190314 80 9 2.0 5.0 0.00 1.20 0.51 68 1016.6
20260904190309 80 11 1.0 4.0 0.00 1.20 0.51 68 1016.7
20260904185541 81 10 1.0 5.0 0.00 1.20 0.51 68 1016.4
20260904184811 81 0 1.0 4.0 0.00 1.20 0.51 67 1016.3
20260904184309 81 279 1.0 5.0 0.00 1.20 0.51 68 1016.3
20260904183809 80 326 2.0 5.0 0.00 1.20 0.51 68 1016.3
20260904183309 80 0 2.0 5.0 0.00 1.20 0.51 67 1016.4
20260904182806 81 34 2.0 5.0 0.00 1.20 0.51 66 1016.2
20260904182306 81 0 3.0 6.0 0.00 1.20 0.51 68 1016.3
20260904181806 81 0 2.0 6.0 0.00 1.20 0.51 70 1016.5
20260904181306 80 0 3.0 8.0 0.00 1.20 0.51 71 1016.9
20260904180807 79 0 4.0 8.0 0.00 1.20 0.51 73 1017.0
20260904180533 79 0 4.0 8.0 0.00 1.20 0.51 73 1017.0
20260904175803 78 0 5.0 9.0 0.00 1.20 0.51 74 1017.1
20260904175306 78 0 5.0 9.0 0.00 1.20 0.51 74 1017.1
20260904174302 78 0 3.0 8.0 0.01 1.20 0.51 74 1016.9
20260904173803 77 0 3.0 7.0 0.03 1.20 0.51 75 1016.9
20260904173258 76 0 1.0 4.0 0.08 1.20 0.51 77 1017.2
20260904172758 75 144 0.0 3.0 0.11 1.20 0.51 77 1017.1
20260904172259 75 143 0.0 3.0 0.11 1.20 0.51 77 1017.1
20260904172029 75 144 1.0 3.0 0.11 1.20 0.51 77 1017.0
20260904171259 75 148 2.0 3.0 0.11 1.20 0.51 76 1017.0
20260904170759 75 175 2.0 5.0 0.11 1.20 0.51 76 1017.2
20260904170524 75 183 1.0 5.0 0.11 1.20 0.51 75 1017.4
20260904165753 75 224 1.0 4.0 0.11 1.20 0.51 75 1017.5
20260904165527 76 0 1.0 21.0 0.11 1.20 0.51 75 1017.5
20260904164754 76 0 5.0 21.0 0.11 1.20 0.51 74 1017.3
20260904164255 77 0 9.0 25.0 0.10 1.19 0.50 73 1017.7
20260904163754 79 349 8.0 29.0 0.08 1.17 0.48 71 1018.1
20260904163249 82 0 5.0 29.0 0.03 1.12 0.43 66 1017.9
20260904162749 83 0 3.0 9.0 0.00 1.09 0.40 63 1017.4
20260904162519 83 0 3.0 9.0 0.00 1.09 0.40 63 1016.9
20260904161747 84 0 3.0 9.0 0.00 1.09 0.40 63 1017.1
20260904161246 84 0 5.0 10.0 0.00 1.09 0.40 62 1017.0
20260904160744 84 0 5.0 12.0 0.00 1.09 0.40 63 1016.7
20260904160242 84 0 5.0 12.0 0.00 1.09 0.40 63 1016.8
20260904155742 83 0 5.0 9.0 0.00 1.09 0.40 62 1017.0
20260904155237 83 0 5.0 9.0 0.00 1.09 0.40 63 1017.0
20260904154735 83 0 3.0 9.0 0.00 1.09 0.40 63 1017.0
20260904154235 83 0 3.0 8.0 0.00 1.09 0.40 64 1017.1
20260904154007 82 0 4.0 10.0 0.00 1.09 0.40 64 1017.1
20260904153234 82 0 5.0 10.0 0.00 1.09 0.40 63 1017.3
20260904152734 82 0 4.0 9.0 0.00 1.09 0.40 64 1017.2
20260904152225 82 193 4.0 9.0 0.00 1.09 0.40 64 1017.1
20260904151724 82 0 4.0 9.0 0.00 1.09 0.40 63 1017.1
20260904151224 81 0 2.0 8.0 0.00 1.09 0.40 64 1017.0
20260904150955 81 0 2.0 5.0 0.00 1.09 0.40 66 1017.0
20260904150224 81 221 2.0 4.0 0.00 1.09 0.40 65 1017.0
20260904145724 81 0 3.0 5.0 0.00 1.09 0.40 67 1017.1
20260904145217 80 0 2.0 5.0 0.00 1.09 0.40 66 1017.1
20260904144718 80 215 1.0 4.0 0.00 1.09 0.40 67 1017.1
20260904144217 80 215 1.0 4.0 0.00 1.09 0.40 67 1017.1
20260904143717 80 0 1.0 3.0 0.00 1.09 0.40 67 1017.2
20260904143217 80 0 1.0 3.0 0.00 1.09 0.40 70 1017.2
20260904142723 78 0 0.0 2.0 0.00 1.12 0.40 72 1017.0
20260904142717 79 240 0.0 2.0 0.00 1.10 0.40 70 1017.0
20260904141945 77 252 1.0 3.0 0.00 1.12 0.40 71 1017.0
20260904141213 77 0 1.0 3.0 0.00 1.13 0.40 73 1016.9
20260904140713 77 0 1.0 4.0 0.00 1.13 0.40 74 1016.9
20260904140214 76 0 1.0 4.0 0.00 1.13 0.40 75 1016.8
20260904135713 76 0 1.0 4.0 0.00 1.13 0.40 76 1016.9
20260904135214 75 0 1.0 3.0 0.00 1.13 0.40 77 1016.9
20260904134705 75 157 1.0 3.0 0.00 1.13 0.40 77 1016.9
20260904134205 75 157 1.0 3.0 0.00 1.13 0.40 78 1017.0
20260904133706 74 157 0.0 3.0 0.00 1.13 0.40 80 1016.9
20260904133207 74 157 0.0 0.0 0.00 1.13 0.40 80 1017.1
20260904132707 74 0 0.0 0.0 0.00 1.13 0.40 81 1017.0
20260904132206 73 0 0.0 0.0 0.00 1.13 0.40 81 1017.2
20260904131701 73 157 0.0 0.0 0.00 1.13 0.40 81 1017.2
20260904131206 73 0 0.0 0.0 0.00 1.13 0.40 82 1017.3
20260904131201 73 0 0.0 0.0 0.00 1.13 0.40 81 1017.3
20260904130202 72 0 0.0 0.0 0.00 1.13 0.40 82 1017.3
20260904125700 72 157 0.0 0.0 0.00 1.13 0.40 81 1017.6
20260904125159 72 157 0.0 0.0 0.00 1.13 0.40 82 1017.7
20260904124658 71 157 0.0 0.0 0.00 1.13 0.40 82 1017.7
20260904124155 71 157 0.0 0.0 0.00 1.13 0.40 82 1017.7
20260904123924 71 157 0.0 0.0 0.00 1.13 0.40 82 1017.6
20260904123425 70 0 0.0 0.0 0.00 1.13 0.40 82 1017.7
20260904122654 70 157 0.0 0.0 0.00 1.13 0.40 81 1017.6
20260904122157 70 157 0.0 0.0 0.00 1.13 0.40 81 1017.5
20260904121648 69 157 0.0 0.0 0.00 1.13 0.40 81 1017.6
20260904121146 69 0 0.0 0.0 0.00 1.13 0.40 81 1017.6
20260904120644 69 0 0.0 0.0 0.00 1.13 0.40 81 1017.5
20260904120142 69 157 0.0 0.0 0.00 1.13 0.40 81 1017.3
20260904115644 69 157 0.0 0.0 0.00 1.13 0.40 81 1017.1
20260904115136 69 0 0.0 0.0 0.00 1.13 0.40 81 1017.3
20260904114634 69 0 0.0 0.0 0.00 1.13 0.40 81 1017.1
20260904114132 69 0 0.0 0.0 0.00 1.13 0.40 81 1017.1
20260904113631 69 0 0.0 0.0 0.00 1.13 0.40 81 1017.2
20260904113132 68 0 0.0 0.0 0.00 1.13 0.40 81 1017.1
20260904112626 68 0 0.0 0.0 0.00 1.13 0.40 81 1017.3
20260904112126 68 158 0.0 0.0 0.00 1.13 0.40 81 1017.3
20260904111626 68 0 0.0 0.0 0.00 1.13 0.40 81 1017.3
20260904111404 68 158 0.0 0.0 0.00 1.13 0.40 81 1016.8
20260904111126 68 157 0.0 0.0 0.00 1.13 0.40 81 1017.0
20260904110124 68 0 0.0 0.0 0.00 1.13 0.40 81 1016.7
20260904105618 68 157 0.0 2.0 0.00 1.13 0.40 81 1016.7
20260904105115 68 157 0.0 2.0 0.01 1.13 0.40 81 1016.6
20260904104844 68 0 0.0 0.0 0.01 1.13 0.40 81 1016.6
20260904104112 68 0 0.0 0.0 0.02 1.13 0.40 81 1016.5
20260904103612 68 0 0.0 0.0 0.03 1.13 0.40 81 1016.6
20260904103110 68 0 0.0 0.0 0.03 1.13 0.40 81 1016.7
20260904102607 68 0 0.0 2.0 0.04 1.13 0.40 81 1016.7
20260904102338 68 0 0.0 2.0 0.04 1.13 0.40 81 1016.6
20260904101838 68 0 1.0 3.0 0.04 1.13 0.40 81 1016.7
20260904101106 68 157 2.0 4.0 0.04 1.13 0.40 81 1016.5
20260904100606 68 0 2.0 4.0 0.04 1.13 0.40 81 1016.5
20260904100455 68 0 1.0 5.0 0.06 1.13 0.40 81 1016.4
20260904100345 68 0 2.0 5.0 0.04 1.13 0.40 81 1016.7
20260904095100 68 0 0.0 3.0 0.06 1.12 0.39 81 1016.7
20260904094602 68 0 1.0 2.0 0.09 1.12 0.39 81 1016.7
20260904094100 68 141 1.0 4.0 0.16 1.11 0.38 81 1016.7
20260904093602 68 0 0.0 4.0 0.17 1.10 0.38 81 1016.8
20260904093327 68 152 0.0 0.0 0.19 1.10 0.37 81 1017.1
20260904092556 68 152 1.0 3.0 0.20 1.09 0.37 81 1017.3
20260904092056 68 0 3.0 6.0 0.27 1.09 0.36 81 1017.0
20260904091555 68 0 3.0 6.0 0.31 1.09 0.36 81 1017.1
20260904091054 68 0 3.0 5.0 0.31 1.09 0.36 81 1016.8
20260904090552 68 174 2.0 5.0 0.31 1.09 0.36 81 1016.7
20260904090048 68 0 1.0 5.0 0.32 1.09 0.36 81 1016.7
20260904085817 68 304 1.0 5.0 0.31 1.07 0.35 81 1016.7
20260904085047 68 0 1.0 5.0 0.30 1.06 0.34 81 1017.0
20260904084818 68 0 2.0 8.0 0.24 1.00 0.30 81 1016.9
20260904084046 68 0 3.0 8.0 0.20 0.95 0.22 81 1016.5
20260904083551 68 0 4.0 10.0 0.19 0.93 0.20 81 1016.8
20260904083051 68 0 5.0 10.0 0.17 0.91 0.18 81 1016.3
20260904082547 68 0 4.0 9.0 0.15 0.89 0.16 81 1016.6
20260904082048 68 0 3.0 8.0 0.08 0.82 0.09 81 1017.2
20260904081547 68 0 3.0 8.0 0.04 0.78 0.05 81 1017.7
20260904081318 68 0 3.0 6.0 0.04 0.78 0.05 81 1017.7
20260904080546 68 0 2.0 6.0 0.04 0.78 0.05 81 1017.4
20260904080043 68 0 1.0 4.0 0.03 0.77 0.04 81 1017.1
20260904075541 68 84 2.0 3.0 0.02 0.76 0.03 81 1017.0
20260904075038 68 87 1.0 3.0 0.02 0.76 0.03 81 1017.2
20260904074812 68 83 1.0 3.0 0.02 0.76 0.03 81 1017.4
20260904074040 68 78 1.0 3.0 0.01 0.75 0.02 80 1017.6
20260904073535 68 78 1.0 3.0 0.00 0.74 0.01 80 1017.7
20260904073036 68 62 1.0 4.0 0.00 0.74 0.01 80 1017.8
20260904072535 68 29 1.0 4.0 0.00 0.74 0.01 80 1017.9
20260904072306 68 0 2.0 5.0 0.00 0.74 0.01 80 1018.2
20260904071534 68 0 3.0 9.0 0.00 0.74 0.01 80 1018.3
20260904071308 68 49 3.0 10.0 0.00 0.74 0.01 80 1017.8
20260904070530 67 49 4.0 10.0 0.00 0.74 0.01 80 1017.4
20260904070032 67 347 5.0 13.0 0.01 0.74 0.01 80 1017.5
20260904065530 67 0 3.0 13.0 0.01 0.74 0.01 80 1017.0
20260904065032 67 0 1.0 4.0 0.01 0.74 0.01 79 1016.3
20260904064530 67 0 0.0 2.0 0.01 0.74 0.01 79 1016.0
20260904064032 67 0 0.0 0.0 0.01 0.74 0.01 79 1016.0
20260904063526 67 0 1.0 4.0 0.01 0.74 0.01 79 1016.0
20260904063258 67 0 1.0 4.0 0.01 0.74 0.01 79 1015.9
20260904062527 67 0 0.0 3.0 0.01 0.74 0.01 79 1015.8
20260904062026 67 0 0.0 2.0 0.01 0.74 0.01 79 1015.8
20260904061529 67 0 1.0 4.0 0.01 0.74 0.01 79 1015.7
20260904061024 67 0 1.0 4.0 0.01 0.74 0.01 79 1015.8
20260904060524 67 0 1.0 4.0 0.01 0.74 0.01 78 1015.9
20260904060021 67 0 1.0 3.0 0.00 0.73 0.00 78 1015.8
20260904055519 67 0 0.0 3.0 0.00 0.73 0.00 78 1015.8
20260904055022 67 223 0.0 0.0 0.00 0.73 0.00 78 1016.0
20260904054518 67 0 0.0 0.0 0.00 0.73 0.00 78 1016.1
20260904054015 67 224 0.0 0.0 0.00 0.73 0.00 78 1016.1
20260904053747 67 0 0.0 0.0 0.00 0.73 0.00 78 1016.0
20260904053016 67 0 0.0 0.0 0.00 0.73 0.00 78 1016.0
20260904052513 67 0 0.0 0.0 0.00 0.73 0.00 78 1016.0
20260904052243 67 0 0.0 0.0 0.00 0.73 0.00 78 1016.1
20260904051509 67 0 0.0 0.0 0.00 0.73 0.00 78 1016.2
20260904051007 67 0 0.0 0.0 0.00 0.73 0.00 78 1016.2
20260904050507 67 0 0.0 0.0 0.00 0.73 0.00 77 1016.3
20260904050006 67 0 0.0 0.0 0.00 0.73 0.00 77 1016.6
20260904045506 67 0 0.0 0.0 0.00 0.73 0.00 77 1016.6
20260904045007 68 0 0.0 1.0 0.00 0.73 0.00 78 1016.7
20260904044507 68 0 0.0 1.0 0.00 0.73 0.00 77 1016.8
20260904044001 68 0 0.0 2.0 0.00 0.73 0.00 77 1016.9
20260904043500 68 0 1.0 3.0 0.00 0.73 0.00 77 1017.0
20260904043231 68 0 1.0 3.0 0.00 0.73 0.00 77 1017.0
20260904042458 68 0 0.0 2.0 0.00 0.73 0.00 77 1017.0
20260904041959 68 0 1.0 3.0 0.00 0.73 0.00 77 1017.1
20260904041732 68 247 0.0 3.0 0.00 0.73 0.00 77 1017.0
20260904040953 68 0 1.0 3.0 0.00 0.73 0.00 77 1017.1
20260904040451 68 240 1.0 3.0 0.00 0.73 0.00 77 1016.9
20260904035950 68 0 1.0 3.0 0.00 0.73 0.73 76 1017.0
20260904035450 68 0 0.0 3.0 0.00 0.73 0.73 76 1017.0
20260904034951 68 0 0.0 0.0 0.00 0.73 0.73 76 1017.2
20260904034453 68 0 0.0 0.0 0.00 0.73 0.73 76 1017.2
20260904033946 68 0 0.0 3.0 0.00 0.73 0.73 76 1017.3
20260904033443 68 0 1.0 3.0 0.00 0.73 0.73 75 1017.5
20260904032941 68 0 2.0 5.0 0.00 0.73 0.73 75 1017.7
20260904032440 68 0 2.0 6.0 0.00 0.73 0.73 75 1017.7
20260904031941 68 0 3.0 8.0 0.00 0.73 0.73 75 1017.7
20260904031433 68 0 4.0 8.0 0.00 0.73 0.73 75 1017.8
20260904030933 68 0 4.0 9.0 0.00 0.73 0.73 75 1017.9
20260904030433 68 0 4.0 10.0 0.00 0.73 0.73 75 1017.9
20260904025934 68 0 4.0 10.0 0.00 0.73 0.73 74 1018.1
20260904025431 68 0 2.0 5.0 0.00 0.73 0.73 74 1018.1
20260904024929 68 0 1.0 4.0 0.00 0.73 0.73 74 1018.1
20260904024658 68 0 1.0 4.0 0.01 0.73 0.73 74 1017.9
20260904023926 68 275 1.0 4.0 0.04 0.73 0.73 74 1017.8
20260904023425 68 164 2.0 5.0 0.15 0.73 0.73 74 1017.9
20260904022926 68 0 3.0 5.0 0.24 0.73 0.73 74 1018.1
20260904022423 68 0 3.0 6.0 0.32 0.73 0.73 73 1018.2
20260904022157 69 0 3.0 6.0 0.48 0.73 0.73 73 1018.4
20260904021417 69 0 3.0 6.0 0.52 0.73 0.73 73 1018.4
20260904020914 69 0 2.0 5.0 0.52 0.73 0.73 73 1018.5
20260904020646 69 163 2.0 4.0 0.52 0.73 0.73 73 1018.5
20260904015915 69 57 0.0 2.0 0.52 0.73 0.73 73 1018.5
20260904015415 69 56 1.0 4.0 0.52 0.73 0.73 73 1018.8
20260904014918 69 56 2.0 7.0 0.52 0.73 0.73 73 1019.0
20260904014640 69 84 2.0 7.0 0.52 0.72 0.72 73 1019.1
20260904013908 69 93 2.0 13.0 0.49 0.69 0.70 72 1019.2
20260904013642 69 321 6.0 18.0 0.39 0.58 0.58 72 1019.4
20260904012909 69 0 11.0 24.0 0.38 0.49 0.50 72 1019.6
20260904012409 69 0 10.0 24.0 0.34 0.38 0.40 72 1019.8
20260904011909 69 0 5.0 19.0 0.21 0.25 0.26 71 1019.1
20260904011402 70 0 3.0 8.0 0.17 0.21 0.21 71 1019.4
20260904010904 70 46 2.0 6.0 0.17 0.21 0.21 71 1018.2
20260904010406 70 51 2.0 9.0 0.17 0.21 0.21 70 1017.8
20260904005903 70 48 2.0 9.0 0.17 0.21 0.21 70 1017.7
20260904005403 70 55 3.0 6.0 0.17 0.21 0.21 70 1018.2
20260904004903 71 0 3.0 8.0 0.17 0.21 0.21 70 1017.8
20260904004401 71 0 3.0 9.0 0.16 0.20 0.20 70 1017.3
20260904004129 71 341 4.0 12.0 0.16 0.20 0.20 71 1017.5
20260904003358 72 194 4.0 13.0 0.15 0.19 0.19 72 1016.8
20260904002859 73 0 4.0 13.0 0.07 0.11 0.13 72 1016.9
20260904002357 74 34 3.0 13.0 0.00 0.04 0.04 72 1016.9
20260904002131 74 38 2.0 8.0 0.00 0.04 0.04 70 1016.4
20260904001352 75 0 2.0 8.0 0.00 0.04 0.04 70 1016.1
20260904000853 76 20 2.0 5.0 0.00 0.04 0.04 69 1016.0
20260904000350 76 234 3.0 14.0 0.00 0.04 0.04 68 1016.4
20260904000122 78 40 4.0 14.0 0.00 0.04 0.04 66 1016.6
20260903235351 79 173 4.0 12.0 0.00 0.04 0.04 65 1016.6
20260903234851 81 51 3.0 9.0 0.00 0.04 0.04 64 1016.4
20260903234344 83 57 1.0 9.0 0.00 0.04 0.04 68 1016.5
20260903234115 84 200 0.0 0.0 0.00 0.04 0.04 68 1016.3
20260903233344 84 200 0.0 0.0 0.00 0.04 0.04 68 1016.2
20260903232839 84 0 0.0 1.0 0.00 0.04 0.04 68 1016.1
20260903232339 84 0 1.0 2.0 0.00 0.04 0.04 68 1016.1
20260903231832 84 200 1.0 3.0 0.00 0.04 0.04 67 1016.2
20260903231331 85 0 2.0 3.0 0.00 0.04 0.04 67 1016.4
20260903230829 85 0 1.0 3.0 0.00 0.04 0.04 67 1016.3
20260903230559 85 0 0.0 2.0 0.00 0.04 0.04 67 1016.6
20260903225826 85 0 0.0 2.0 0.00 0.04 0.04 67 1016.6
20260903225325 85 205 1.0 5.0 0.00 0.04 0.04 66 1016.5
20260903225052 85 0 2.0 5.0 0.00 0.04 0.04 66 1016.2
20260903224323 85 0 2.0 5.0 0.00 0.04 0.04 66 1015.7